sat.trackr.live / text

‹ back to catalog

STARLINK-30218

NORAD 57604 · 2023-119C

PAYLOAD ACTIVE UNKNOWN

§ Identity

Operator
Country
US
Launch date
2023-08-11
Launch site
AFETR
Launch vehicle
Mass (kg)
RCS (m²)

Purposes: comms

External: N2YO · Heavens-Above · Gunter

§ Orbital elements

Epoch: 2026-05-24T22:02:13.603200Z

Period
94.27 min
Inclination
43.0021°
Eccentricity
0.0001283
Mean motion
15.27578678 rev/d
Perigee alt
482.2 km
Apogee alt
483.9 km
Semi-major
6,861.2 km
B*
-1.1353e-4
RAAN
11.1624°
Arg perigee
271.8989°
Mean anomaly
88.1715°
Rev number
15,474

§ Raw data

STARLINK-302181 57604U 23119C   26144.91821300 -.00003385  00000+0 -11353-3 0  99952 57604  43.0021  11.1624 0001283 271.8989  88.1715 15.27578678154744

JSON: /api/v1/satellites/57604 · /tle

For live sub-satellite position, see the globe view (requires WebGL).

§ Visibility from observer

Set your observer location to see the next 7 days of passes ≥ 10°. The values pass through the URL so the page stays shareable.

No JS? Fill the form by hand. The geolocation button needs JavaScript.